Location: Comazzo
(45.4333°N, 9.4500°E)
Time: 13:35:50
(UTC+00:00)

Daily predictions for brighter satellites

Satellite Brightness Start Highest point End
(mag) Time Altitude Azimuth Time Altitude Azimuth Time Altitude Azimuth
Cosmos-2242 4.0 16:19:54 10° SSW 16:24:03 50° WNW 16:28:13 10° N
Cosmos 1943 Rocket 4.0 16:23:35 10° WSW 16:28:21 27° NW 16:33:10 10° N
Meteor 2-3 Rocket 4.0 16:22:54 10° N 16:28:34 52° ENE 16:34:12 10° SSE
SMAP 3.1 16:24:32 10° SSE 16:29:05 58° ENE 16:33:41 10° N
Cosmos 1238 Rocket 3.6 16:24:48 10° N 16:29:15 36° ENE 16:32:57 10° SE
YAOGAN 6 4.2 16:27:44 10° E 16:29:39 14° ENE 16:31:34 10° NNE
Cosmos 1743 Rocket 3.7 16:28:12 10° N 16:32:27 51° ENE 16:36:42 10° SSE
TSX-5 4.1 16:28:49 10° S 16:32:28 55° ESE 16:37:07 10° NE
CZ-4B R/B 4.4 16:27:42 10° S 16:32:49 48° W 16:37:58 10° NNW
IRS-1C Rocket 4.1 16:27:56 10° SSE 16:33:12 80° ENE 16:38:31 10° NNW
Okean O Rocket 3.1 16:29:12 10° S 16:33:23 42° W 16:37:34 10° NNW
Cosmos 2123 Rocket 4.0 16:27:50 10° S 16:34:03 79° E 16:40:16 10° N
Meteor 2-10 Rocket 3.4 16:30:34 10° S 16:35:33 79° E 16:40:37 10° NNE
Genesis I 4.3 16:32:17 10° S 16:35:45 28° ESE 16:39:14 10° ENE
COBE Rocket 4.3 16:32:41 10° NNE 16:37:14 39° E 16:41:38 10° SSE
USA 215 3.9 16:34:49 10° E 16:40:46 38° NNE 16:46:42 10° NW
Cosmos 1725 Rocket 4.1 16:35:55 10° N 16:42:17 88° W 16:48:36 10° S
Envisat 3.4 16:38:14 10° SE 16:42:57 40° ENE 16:47:40 10° N
Cosmos 1697 Rocket 4.4 16:42:09 10° ESE 16:43:53 11° E 16:45:07 11° E
USA 229 DEB 4.4 16:38:16 10° S 16:43:55 32° ESE 16:49:48 10° NE
USA 229 4.4 16:38:26 10° S 16:44:02 32° ESE 16:49:52 10° NE
CZ-4B R/B 4.4 16:42:58 10° NW 16:44:40 13° WNW 16:46:22 10° W
Aureole 2 Rocket 4.5 16:46:47 10° WSW 16:49:38 26° WNW 16:52:38 10° N
NOSS 3-1 (C) 4.2 16:46:42 10° S 16:51:20 29° ESE 16:55:55 12° ENE
ATLAS 5 CENTAUR R/B 2.8 16:48:10 10° NNW 16:53:28 40° NE 16:59:30 10° ESE
Cosmos 1500 Rocket 3.5 16:53:49 10° N 16:58:15 87° E 17:02:35 10° S
CZ-4 R/B 2.1 16:55:12 10° SE 16:58:54 31° ENE 17:02:35 10° N
Cosmos 1340 Rocket 4.3 16:56:36 10° SW 17:00:22 39° WNW 17:04:12 10° N
Cosmos 1633 Rocket 4.2 17:01:21 10° NNE 17:04:45 21° ENE 17:08:04 10° ESE
COSMO-SKYMED 1 2.9 17:04:20 10° NNE 17:08:29 41° E 17:12:35 10° S
SeaSat 1 2.6 17:05:03 10° SSE 17:09:59 79° WSW 17:14:57 10° NNW
Cosmos 1869 3.5 17:06:36 10° SSE 17:10:25 47° E 17:14:13 10° NNE
Geosat 4.1 17:06:57 10° NNE 17:12:00 79° WNW 17:17:01 10° SW
Cosmos 1607 4.0 17:07:19 10° NNW 17:13:27 58° NE 17:19:36 10° SE
Cosmos 1666 Rocket 4.3 17:09:39 10° N 17:13:34 30° ENE 17:17:25 10° SE
Cosmos 1867 3.7 17:12:01 10° SW 17:17:29 79° NW 17:22:42 12° NNE
Cosmos 1825 4.3 17:14:24 10° NNW 17:17:45 30° W 17:21:04 10° SSW
Cosmos 1939 Rocket 4.1 17:19:06 23° ENE 17:19:06 23° ENE 17:21:59 10° NNE
BREEZE-M DEB (TANK) 4.4 17:15:50 10° SW 17:20:00 78° SSE 17:30:37 18° ENE
CSL-04 Debris 4.3 17:16:22 10° SE 17:21:38 50° ENE 17:26:57 10° N
Sich 1 3.1 17:18:27 10° N 17:22:41 50° ENE 17:26:55 10° SSE
NOAA 12 4.3 17:17:36 10° S 17:22:55 75° WSW 17:28:16 10° NNW
GEOS 3 Rocket 4.4 17:17:56 10° NNE 17:22:58 49° NW 17:28:01 10° WSW
Cosmos 2219 3.1 17:17:41 10° NNW 17:23:20 88° ENE 17:28:57 10° SSE
Ariane Rocket 3.9 17:25:09 25° E 17:26:00 27° ENE 17:30:12 10° N
Cosmos 2034 Rocket 4.4 17:20:22 10° N 17:26:18 40° ENE 17:32:13 10° SE
Cosmos 1656 3.9 17:21:37 10° S 17:26:54 45° ESE 17:30:21 20° NE
Cosmos 2084 3.4 17:28:05 10° NW 17:32:25 88° WSW 17:35:48 15° SE
SKYMED 3 4.4 17:28:15 10° NNE 17:32:37 75° ESE 17:36:57 10° S
FengYun 1-2 T 4.2 17:29:29 10° SSE 17:35:02 87° ENE 17:40:34 10° NNW
Okean-O 3.7 17:31:48 10° S 17:36:05 48° W 17:40:24 10° NNW
Cosmos 923 Rocket 4.5 17:33:15 10° SSE 17:38:01 37° ESE 17:39:04 33° ENE
YAOGAN 1 2.5 17:34:12 10° SSE 17:38:28 65° ENE 17:42:47 10° N
Meteor 2-2 Rocket 4.5 17:32:38 10° SSW 17:38:33 77° WNW 17:44:21 10° N
Cosmos 2344 4.3 17:32:14 10° WSW 17:39:30 51° NW 17:47:45 10° NE
Cosmos 773 Rocket 4.1 17:34:25 10° SSW 17:39:33 75° WNW 17:44:47 10° NNE
CSL-04 Rocket 3.5 17:38:03 10° SSE 17:43:25 74° ENE 17:48:45 10° N
ERBS 4.3 17:41:40 10° S 17:42:58 18° SSE 17:42:58 18° SSE
Tsikada Rocket 4.5 17:39:32 10° SSE 17:45:13 36° E 17:50:58 10° NNE
Cosmos 1980 Rocket 4.0 17:41:59 10° SSE 17:43:05 14° SE 17:43:05 14° SE
Cosmos 2227 Rocket 2.1 17:41:34 10° NNW 17:47:17 84° ENE 17:52:56 10° SSE
Cosmos 2297 Rocket 2.1 17:42:15 10° NNW 17:47:56 89° WSW 17:53:36 10° SSE
Cosmos 2221 4.5 17:46:12 10° SW 17:49:59 30° WNW 17:53:49 10° NNW
Cosmos 1538 Rocket 4.1 17:44:44 10° SSW 17:49:59 80° WNW 17:54:54 12° NNE
Cosmos 1633 2.4 17:47:38 10° N 17:51:17 80° E 17:52:46 34° SSE
Meteor 2-11 Rocket 4.4 17:46:57 10° N 17:52:59 59° ENE 17:59:01 10° SSE
SKYMED 2 4.0 17:52:21 10° N 17:56:39 61° WNW 18:00:56 10° SSW
Cosmos 1862 3.1 17:53:26 10° N 17:57:25 76° E 17:57:45 69° SE
Cosmos 2369 3.8 17:54:04 10° S 17:59:31 52° ESE 18:00:29 47° ENE
USA 116 4.1 17:56:23 17° NNE 17:59:52 88° WNW 18:04:47 10° SSW
YAOGAN 6 3.8 17:59:31 10° S 18:02:50 40° W 18:06:10 10° NNW
TRAILBLAZER 4.5 17:58:57 10° NNW 18:03:34 68° NE 18:03:43 68° ENE
DMSP B5D1-3 4.4 18:05:47 31° NNE 18:08:19 72° ESE 18:13:28 10° S
Cosmos 1356 Rocket 4.3 18:04:46 10° SSW 18:08:46 49° WNW 18:12:40 11° N
Lacrosse 4 Rocket 2.6 18:07:53 10° SSW 18:10:04 29° S 18:10:04 29° S
Cosmos 2082 3.5 18:07:09 10° NNW 18:12:49 84° ENE 18:14:50 42° SSE
Cosmos 2263 Rocket 3.9 18:11:26 10° N 18:13:29 18° NNE 18:13:29 18° NNE
Cosmos 1464 Rocket 4.3 18:11:04 10° NNW 18:17:11 66° W 18:23:13 10° S
BREEZE-M DEB (TANK) 3.2 18:13:53 10° WSW 18:17:34 40° SSW 18:17:34 40° SSW
Cosmos 2278 4.0 18:14:58 10° S 18:19:26 49° SSE 18:19:26 49° SSE
USA 215 3.1 18:21:35 53° ESE 18:23:16 78° NE 18:29:51 10° NW
Cosmos 1697 Rocket 2.5 18:21:13 10° SSW 18:26:52 79° ESE 18:26:56 79° ESE
BREEZE-M DEB (TANK) 3.5 18:23:45 10° WNW 18:28:16 38° NW 18:28:16 38° NW
CZ-4 R/B 3.7 18:30:29 10° SSW 18:33:56 25° W 18:37:22 10° NW
USA 229 DEB 4.0 18:27:58 10° SW 18:34:27 60° NW 18:37:27 34° NNE
USA 229 4.0 18:28:06 10° SW 18:34:35 60° NW 18:37:29 34° NNE
Cosmos 724 4.4 18:31:09 10° NNW 18:36:09 60° N 18:36:09 60° N
ATLAS 5 CENTAUR R/B 3.2 18:32:40 10° NW 18:38:21 50° WSW 18:42:10 23° S
NOSS 3-1 (A) 3.3 18:33:55 10° SW 18:39:29 81° NW 18:39:52 76° N
NOSS 3-1 (C) 3.9 18:36:11 10° WSW 18:41:41 55° NW 18:43:21 43° N
Cosmos 1633 Rocket 4.4 18:38:36 10° NNW 18:42:40 38° W 18:45:36 17° SSW
Cosmos 1680 Rocket 4.5 18:51:18 10° SSW 18:54:47 41° SW 18:54:47 41° SW
H-2A R/B 4.3 19:02:21 15° N 19:02:21 15° N 19:03:17 10° N
Ariane Rocket 4.1 19:05:22 42° WNW 19:05:22 42° WNW 19:09:36 10° NNW
Cosmos 1980 Rocket 4.5 19:23:58 10° SW 19:24:56 15° SW 19:24:56 15° SW
CENTAUR R/B 4.4 19:25:14 10° NNW 19:29:38 25° N 19:29:38 25° N
